Location: Beekmeers
(50.8953°N, 3.6968°E)
Time: 12:18:49
(UTC+00:00)

Tiangong - Visible Passes

Search period start: 20 July 2024 00:00
Search period end: 30 July 2024 00:00
Orbit: 374 x 377 km, 41.5° (Epoch: 20 July)

Date Brightness Start Highest point End Pass type
(mag) Time Alt. Az. Time Alt. Az. Time Alt. Az.
20 Jul 0.0 02:01:09 13° SSE 02:01:09 13° SSE 02:02:00 10° SE visible
21 Jul -0.1 02:33:55 13° S 02:33:55 13° S 02:35:11 10° SSE visible
27 Jul 0.1 20:51:03 10° S 20:51:41 11° S 20:51:41 11° S visible
28 Jul 0.1 21:23:21 10° SSW 21:24:02 12° SSW 21:24:02 12° SSW visible
29 Jul -0.1 20:20:56 10° SSW 20:22:26 13° S 20:23:57 10° SE visible
